Date,TemperatureHighF,TemperatureAvgF,TemperatureLowF,DewpointHighF,DewpointAvgF,DewpointLowF,HumidityHigh,HumidityAvg,HumidityLow,PressureMaxIn,PressureMinIn,WindSpeedMaxMPH,WindSpeedAvgMPH,GustSpeedMaxMPH,PrecipitationSumIn
2013-1-13,82,78,75,69,68,66,75,69,64,30.12,30.09,9,2,0,0.00
2013-1-15,82,76,70,69,67,64,83,74,64,30.13,30.04,12,2,16,0.00
2013-1-16,82,77,65,70,69,63,94,77,62,30.09,30.01,14,2,14,0.00
2013-1-17,79,71,63,74,67,58,95,87,71,30.08,29.95,8,1,12,0.03
2013-1-18,71,65,56,60,55,49,81,70,62,30.22,30.09,13,2,16,0.00
2013-1-19,71,70,68,69,65,60,95,85,69,30.18,30.09,4,0,0,0.33
2013-1-20,80,72,65,70,67,64,97,85,68,30.13,30.01,7,1,0,0.01
2013-1-21,80,72,66,73,69,65,97,90,73,30.06,29.95,4,0,0,0.78
2013-1-24,75,68,59,55,51,44,84,56,40,30.28,30.22,6,1,12,0.00
2013-1-25,78,68,56,61,58,52,87,71,55,30.25,30.17,4,0,0,0.00
2013-1-26,81,67,59,59,56,53,90,71,45,30.23,30.18,4,0,0,0.00
2013-1-27,77,76,75,61,61,60,60,59,58,30.23,30.21,5,3,0,0.00
2013-1-28,81,77,72,68,66,64,80,70,61,30.31,30.23,12,4,17,0.00
2013-1-29,77,75,74,71,69,67,87,80,75,30.22,30.13,10,2,0,0.03
2013-1-30,78,76,72,68,66,64,79,72,66,30.09,29.96,10,3,19,0.00
2013-1-31,66,65,64,58,56,54,80,73,64,30.06,30.06,2,0,0,0.02
2013-2-1,72,66,56,56,53,41,71,64,56,30.23,30.16,14,4,18,0.00
2013-2-2,75,74,73,54,53,53,50,48,46,30.22,30.18,12,3,12,0.00
2013-2-3,76,68,56,54,48,39,85,52,28,30.16,30.06,10,2,0,0.00
2013-2-4,78,71,59,55,48,44,86,48,31,30.10,30.03,7,1,0,0.00
2013-2-5,80,77,75,63,61,58,65,57,50,30.07,29.99,10,3,12,0.00
2013-2-6,79,71,61,68,63,59,95,78,63,30.10,30.05,5,1,0,0.00
2013-2-7,82,77,72,69,66,65,78,70,58,29.99,29.94,9,2,12,0.00
2013-2-8,84,77,70,71,69,67,93,79,60,30.01,29.93,2,0,0,0.00
2013-2-9,79,73,66,66,65,64,93,79,64,30.13,30.01,9,2,14,0.00
2013-2-10,76,73,69,64,63,61,85,72,64,30.26,30.15,14,5,18,0.01
2013-2-11,79,75,72,66,65,64,81,73,63,30.21,30.12,5,1,14,0.00
2013-2-12,83,81,78,70,70,69,76,70,64,30.03,29.97,10,3,14,0.00
2013-2-13,88,81,72,75,71,68,96,74,54,30.00,29.88,7,2,13,0.01
2013-2-14,78,72,68,72,70,66,95,91,80,29.98,29.86,7,1,12,0.12
2013-2-15,68,66,65,66,64,64,95,95,94,29.97,29.93,0,0,0,0.37
2013-2-16,74,69,63,64,59,51,97,72,55,29.92,29.86,5,1,0,0.01
2013-2-17,57,52,44,44,33,25,68,50,32,30.25,30.07,6,2,14,0.00
2013-2-18,69,59,48,57,46,36,71,63,53,30.30,30.22,13,2,15,0.00
2013-2-19,76,75,74,62,61,61,63,62,61,30.18,30.17,7,4,13,0.00
2013-2-26,81,80,79,72,72,71,78,76,73,29.86,29.81,2,0,0,0.00
2013-2-27,77,70,66,74,66,64,94,88,72,29.94,29.86,0,0,0,0.58
2013-2-28,71,66,59,56,54,51,82,66,49,30.00,29.91,4,0,0,0.00
2013-3-1,64,61,59,52,50,48,73,67,61,29.98,29.95,10,0,0,0.00
2013-3-2,68,62,55,45,43,38,69,50,42,30.02,29.95,10,2,16,0.00
2013-3-3,62,62,62,42,42,42,48,48,48,29.99,29.99,0,0,0,0.00
2013-3-8,74,70,65,54,53,52,67,55,48,30.14,30.10,7,2,0,0.00
2013-3-9,75,64,55,58,54,50,85,70,53,30.18,30.10,6,1,13,0.00
2013-3-10,76,75,74,57,57,56,54,53,51,30.15,30.14,11,4,13,0.00
2013-3-11,80,75,69,63,61,59,72,62,50,30.02,29.96,14,4,14,0.00
2013-3-12,81,77,71,71,69,65,83,75,69,30.00,29.90,10,2,16,0.00
2013-3-13,75,74,73,55,54,53,52,49,46,30.06,30.04,12,4,18,0.00
2013-3-14,72,63,58,50,48,42,74,59,35,30.19,30.14,11,3,17,0.00
2013-3-15,74,73,73,53,52,50,50,47,44,30.18,30.16,7,3,0,0.00
2013-3-16,76,61,54,56,53,52,93,79,50,30.17,30.08,8,1,16,0.00
2013-3-17,75,72,70,62,61,60,75,68,61,30.08,30.04,5,1,0,0.00
2013-3-18,74,72,69,71,69,66,93,92,90,30.01,29.97,2,0,0,0.44
2013-3-19,77,74,71,70,69,67,95,83,75,29.94,29.83,9,1,15,0.00
2013-3-30,76,75,75,55,53,51,49,46,43,30.23,30.18,10,5,12,0.00
2013-3-31,78,77,77,65,64,64,66,65,64,30.16,30.14,8,4,14,0.00
2013-4-2,86,82,79,67,66,65,66,58,50,30.07,30.05,9,2,0,0.00
2013-4-3,83,80,74,70,70,68,81,72,65,30.06,29.98,11,4,14,0.00
2013-4-4,82,74,69,73,70,67,95,87,71,30.00,29.90,10,1,15,0.96
2013-4-5,72,69,68,68,67,66,94,92,87,29.91,29.85,7,0,0,0.37
2013-4-6,76,75,74,66,66,65,74,73,71,30.03,30.01,7,2,14,0.01
2013-4-7,78,77,76,65,64,64,67,65,63,30.13,30.09,7,2,14,0.00
2013-4-8,82,80,75,66,64,62,71,59,53,30.12,30.06,9,2,13,0.00
2013-4-9,81,77,74,70,68,66,81,73,66,30.15,30.08,11,3,14,0.04
2013-4-10,83,78,74,74,72,68,85,81,73,30.08,29.99,10,3,15,0.00
2013-4-15,91,84,71,77,74,69,92,73,60,30.02,29.94,11,4,20,1.16
2013-4-16,84,79,71,75,73,70,97,83,72,30.07,30.02,12,4,15,0.01
2013-4-17,85,80,74,69,68,67,86,68,56,30.07,30.01,6,2,0,0.00
2013-4-18,85,81,76,74,72,68,82,76,69,30.06,29.98,12,3,14,0.00
2013-4-19,87,86,83,73,72,71,71,64,60,29.99,29.96,12,6,15,0.13
2013-4-20,90,83,73,78,75,71,95,78,61,30.05,29.96,13,2,21,0.35
2013-4-21,84,82,79,75,73,72,80,76,70,30.08,29.98,12,3,14,0.01
2013-4-22,74,73,73,70,70,70,91,90,89,30.02,30.00,8,2,13,0.00
2013-4-25,84,80,76,64,63,62,64,56,47,30.17,30.13,10,3,0,0.00
2013-4-26,83,83,82,67,66,66,60,58,56,30.20,30.18,11,5,15,0.00
2013-4-27,82,80,77,68,66,64,75,64,54,30.17,30.08,8,3,15,0.00
2013-4-28,82,78,74,66,64,64,73,63,56,30.10,29.99,8,3,18,0.00
2013-4-29,83,80,78,72,70,67,79,73,63,30.03,29.93,12,3,16,0.00
2013-4-30,86,80,72,74,71,68,92,76,61,30.01,29.94,13,1,19,2.67
2013-5-1,86,81,72,74,72,69,93,76,66,29.99,29.92,7,1,13,0.44
2013-5-2,74,71,69,70,69,68,96,93,85,29.90,29.80,13,3,17,2.63
2013-5-3,90,76,69,74,71,68,97,85,55,29.82,29.71,10,0,12,0.81
2013-5-5,86,78,67,68,60,54,95,58,41,29.92,29.78,3,0,0,0.00
2013-5-6,78,68,60,64,59,55,89,73,57,29.95,29.91,10,0,0,0.00
2013-5-7,86,74,62,67,61,56,84,66,42,30.02,29.96,5,0,0,0.00
2013-5-8,83,75,66,65,63,60,81,66,54,30.13,30.04,4,1,0,0.00
2013-5-9,79,73,68,74,68,62,88,83,79,30.11,30.07,2,0,0,0.00
2013-5-10,85,81,75,75,73,71,90,79,66,30.08,30.01,10,2,15,0.00
2013-5-11,87,79,74,78,74,72,93,85,67,30.06,30.00,9,2,15,0.33
2013-5-12,72,72,71,71,70,70,96,95,95,30.03,29.95,0,0,0,1.64
2013-5-13,91,83,71,74,72,68,97,70,49,30.08,29.99,5,1,0,0.01
2013-5-14,82,78,74,67,61,57,76,56,47,30.17,30.06,11,3,16,0.00
2013-5-15,83,78,73,67,63,58,68,60,49,30.19,30.09,13,3,15,0.00
2013-5-16,84,77,68,67,63,60,82,64,49,30.11,30.03,9,2,13,0.00
2013-5-17,86,78,70,74,70,63,90,79,63,30.09,30.00,11,1,13,0.03
2013-5-18,86,79,73,76,72,70,95,81,66,30.10,30.03,12,2,14,0.02
2013-5-19,87,80,74,72,70,68,87,73,59,30.10,30.00,10,2,13,0.00
2013-5-20,80,76,69,76,72,67,96,90,79,30.08,29.97,8,0,15,6.90
2013-5-21,84,76,69,75,72,67,96,88,68,30.05,29.93,12,2,19,0.19
2013-5-22,87,78,73,76,73,69,95,84,62,29.97,29.89,11,1,14,0.36
2013-5-23,96,83,74,77,74,66,95,77,38,30.00,29.90,8,1,0,0.00
2013-5-24,93,84,76,77,74,67,94,74,49,30.05,29.94,9,1,13,0.00
2013-5-25,86,80,74,75,70,65,94,71,52,30.16,30.03,14,2,17,0.16
2013-5-26,85,79,72,69,66,60,78,64,55,30.17,30.10,12,2,16,0.00
2013-5-27,85,80,76,74,70,64,85,73,64,30.15,30.06,13,3,16,0.02
2013-5-28,84,79,76,75,73,72,92,83,72,30.11,30.04,16,4,20,0.13
2013-5-29,82,76,72,76,73,69,96,88,67,30.09,30.01,13,2,22,4.00
2013-5-30,82,78,74,76,73,69,94,84,75,30.08,30.00,20,4,28,0.75
2013-5-31,84,79,76,76,74,72,95,86,74,30.06,30.00,14,4,16,0.92
2013-6-1,85,78,74,78,75,73,96,91,78,30.03,29.95,10,1,12,1.07
2013-6-2,91,80,73,79,75,72,98,85,64,30.00,29.91,11,1,14,0.00
2013-6-7,80,77,75,76,74,74,95,92,84,29.98,29.93,4,0,0,0.66
2013-6-8,86,83,79,79,78,75,90,85,77,30.10,30.01,7,0,0,1.86
2013-6-9,86,82,78,77,76,75,90,81,71,30.11,30.03,11,3,13,0.00
2013-6-10,88,85,82,78,77,76,85,76,70,30.08,30.01,10,3,13,0.00
2013-6-11,90,86,82,80,77,74,87,76,65,30.06,30.00,8,2,0,0.00
2013-6-12,82,82,81,77,77,76,87,85,84,30.04,30.02,0,0,0,0.00
2013-6-13,90,84,79,80,79,77,96,84,66,30.04,30.03,4,0,0,0.00
2013-6-14,94,85,79,78,74,72,79,71,56,29.95,29.91,4,1,0,0.00
2013-6-23,87,84,83,76,75,73,76,73,66,30.09,30.06,10,3,13,0.01
2013-6-24,88,87,84,76,75,74,76,69,65,30.16,30.07,11,4,15,0.00
2013-6-25,88,86,85,76,76,75,76,73,69,30.05,30.04,6,4,14,0.06
2013-6-26,86,85,85,77,76,76,76,75,71,30.05,30.03,7,4,13,0.11
2013-6-27,89,82,75,80,76,70,94,81,63,30.06,29.95,6,1,20,0.87
2013-6-28,95,90,85,78,76,74,78,63,53,29.97,29.85,11,2,14,0.00
2013-6-29,88,87,84,79,78,77,81,75,70,29.89,29.87,0,0,0,0.00
2013-6-30,91,88,83,79,78,76,87,73,61,29.90,29.88,5,1,0,0.01
2013-7-1,87,86,84,78,77,76,78,76,74,29.99,29.94,12,4,13,0.01
2013-7-2,89,87,85,80,79,78,81,78,74,30.06,30.04,13,3,15,0.01
2013-7-3,88,86,84,80,78,77,86,78,74,30.11,30.08,12,4,18,0.23
2013-7-4,85,84,83,78,77,76,80,80,79,30.12,30.09,8,4,0,0.06
2013-7-5,87,86,85,78,77,76,77,75,72,30.06,30.05,10,5,15,1.11
2013-7-9,84,83,82,75,74,74,77,76,73,30.05,30.04,4,2,0,0.13
2013-7-10,85,84,83,76,76,75,79,76,73,30.05,30.03,4,1,0,0.53
2013-7-11,88,84,80,78,74,72,79,73,68,29.98,29.94,9,1,0,0.00
2013-7-12,92,84,74,80,76,70,93,78,61,29.97,29.89,5,0,0,2.12
2013-7-13,88,82,76,81,78,76,97,90,75,29.98,29.96,9,1,0,0.27
2013-7-20,88,85,77,79,77,73,88,79,72,30.10,30.03,4,1,12,0.01
2013-7-21,88,85,84,79,78,77,85,81,73,30.09,30.03,5,1,0,0.01
2013-7-23,98,92,86,78,77,72,73,63,45,30.07,29.97,7,2,0,0.00
2013-7-24,98,90,79,78,74,70,93,60,45,29.98,29.91,3,0,0,0.00
2013-7-30,88,85,83,80,79,78,85,81,74,30.15,30.14,4,0,0,0.00
2013-7-31,89,87,85,79,78,76,77,74,69,30.11,30.01,11,3,12,0.01
2013-8-1,91,90,90,76,75,74,63,62,60,30.01,30.00,10,4,12,0.00
2013-8-2,91,80,76,77,75,73,93,85,60,30.05,29.98,6,1,12,0.19
2013-8-3,76,76,75,74,74,74,95,95,95,30.09,30.08,0,0,0,0.87
2013-8-4,94,82,75,81,76,73,93,82,61,30.08,30.01,2,0,0,0.12
2013-8-5,97,87,82,82,52,-100,87,75,55,30.03,29.94,6,1,0,0.16
2013-8-6,82,82,82,-100,-100,-100,83,83,83,29.97,29.89,10,2,0,0.00
2013-8-7,82,82,82,-100,-100,-100,83,83,83,29.98,29.92,7,2,12,0.00
2013-8-8,82,82,82,-100,-100,-100,83,83,83,29.98,29.95,10,3,12,0.00
2013-8-10,82,82,82,-100,-100,-100,83,83,83,30.08,30.07,2,0,0,0.00
2013-8-11,82,82,82,-100,-100,-100,83,83,83,30.08,30.07,4,1,0,0.00
2013-8-12,82,82,82,-100,-100,-100,83,83,83,30.05,30.01,10,3,0,0.00
2013-8-13,82,82,82,-100,-100,-100,83,83,83,30.03,29.95,11,3,13,0.00
2013-8-14,82,82,82,-100,-100,-100,83,83,83,29.99,29.94,7,2,0,0.00
2013-8-15,82,82,82,-100,-100,-100,83,83,83,30.02,29.96,3,0,0,0.24
2013-8-16,82,82,82,-100,-100,-100,83,83,83,30.04,29.98,7,3,0,0.02
2013-8-18,82,82,82,-100,-100,-100,83,83,83,30.08,29.99,13,5,17,0.05
2013-8-19,82,82,82,-100,-100,-100,83,83,83,30.03,29.96,13,3,14,0.00
2013-8-20,82,82,82,-100,-100,-100,83,83,83,30.06,29.99,13,4,16,0.07
2013-8-21,82,82,82,-100,-100,-100,83,83,83,30.04,30.00,13,5,15,0.11
2013-8-22,82,82,82,-100,-100,-100,83,83,83,30.04,29.97,12,3,14,0.01
2013-8-23,82,82,82,-100,-100,-100,83,83,83,29.99,29.94,2,0,0,0.00
2013-8-24,41,41,41,-100,-100,-100,38,38,38,30.06,30.02,10,4,0,0.02
2013-8-26,41,41,41,-100,-100,-100,38,38,38,30.08,30.06,4,1,0,0.00
2013-8-27,41,41,41,-100,-100,-100,38,38,38,30.01,29.98,0,0,0,0.00
2013-8-28,41,41,41,-100,-100,-100,38,38,38,30.03,29.95,6,2,0,0.11
2013-8-29,41,41,41,-100,-100,-100,38,38,38,29.98,29.96,9,4,0,0.01
2013-9-8,41,41,41,-100,-100,-100,38,38,38,29.93,29.91,0,0,0,0.00
2013-9-9,41,41,41,-100,-100,-100,38,38,38,29.99,29.98,7,1,0,0.02
2013-9-10,41,41,41,-100,-100,-100,38,38,38,30.01,29.98,11,4,0,0.22
2013-9-14,41,41,41,-100,-100,-100,38,38,38,29.91,29.89,6,3,0,0.00
2013-9-17,41,41,41,-100,-100,-100,38,38,38,29.98,29.97,7,1,0,2.81
2013-9-18,41,41,41,-100,-100,-100,38,38,38,29.98,29.95,5,2,0,0.50
2013-9-19,41,41,41,-100,-100,-100,38,38,38,29.99,29.94,7,1,0,0.01
2013-9-21,41,41,41,-100,-100,-100,38,38,38,29.87,29.84,4,2,0,0.00
2013-9-23,41,41,41,-100,-100,-100,38,38,38,29.92,29.91,0,0,0,0.63
2013-9-25,41,41,41,-100,-100,-100,38,38,38,29.80,29.78,1,0,0,0.10
2013-9-29,41,41,41,-100,-100,-100,38,38,38,29.96,29.88,6,2,0,0.00
2013-9-30,41,41,41,-100,-100,-100,38,38,38,30.00,29.91,5,2,0,0.00
2013-10-1,41,41,41,-100,-100,-100,38,38,38,30.02,29.95,7,2,0,0.00
2013-10-2,41,41,41,-100,-100,-100,38,38,38,30.01,29.97,2,1,0,0.00
2013-10-3,41,41,41,-100,-100,-100,38,38,38,30.03,29.98,8,1,0,0.12
2013-10-4,41,41,41,-100,-100,-100,38,38,38,30.04,29.98,4,1,0,0.00
2013-10-5,41,41,41,-100,-100,-100,38,38,38,30.01,29.93,7,1,0,0.00
2013-10-6,41,41,41,-100,-100,-100,38,38,38,29.95,29.89,0,0,0,0.00
2013-10-9,41,41,41,-100,-100,-100,38,38,38,29.94,29.93,4,1,12,0.00
2013-10-10,41,41,41,-100,-100,-100,38,38,38,30.00,29.95,0,0,0,0.00
2013-10-13,41,41,41,-100,-100,-100,38,38,38,29.99,29.98,4,1,0,0.00
2013-10-14,41,41,41,-100,-100,-100,38,38,38,29.98,29.90,6,3,12,0.00
2013-10-16,41,41,41,-100,-100,-100,38,38,38,29.92,29.88,4,2,0,0.00
2013-10-17,41,41,41,-100,-100,-100,38,38,38,29.92,29.91,0,0,0,0.00
2013-10-19,41,41,41,-100,-100,-100,38,38,38,29.96,29.90,5,1,0,0.00
2013-10-20,41,41,41,-100,-100,-100,38,38,38,29.94,29.88,6,1,0,0.00
2013-11-4,41,41,41,-100,-100,-100,38,38,38,30.05,30.02,8,4,16,0.00
2013-11-5,41,41,41,-100,-100,-100,38,38,38,30.02,30.01,0,0,15,0.00
2013-11-6,41,41,41,-100,-100,-100,38,38,38,30.00,30.00,3,3,0,0.00
2013-11-11,41,41,41,-100,-100,-100,38,38,38,30.06,30.05,5,1,0,0.00
2013-11-12,41,41,41,-100,-100,-100,38,38,38,30.04,29.98,5,2,0,0.00
2013-11-13,73,72,71,62,62,61,73,70,69,30.11,30.08,11,6,13,0.07
2013-11-14,75,73,72,59,57,56,63,57,53,30.16,30.14,11,2,0,0.00
2013-11-15,76,76,76,66,66,66,71,71,71,30.05,30.03,2,1,0,0.00
2013-11-19,86,83,78,73,72,71,80,71,60,29.92,29.85,5,1,0,0.02
2013-11-20,78,78,77,72,71,71,82,82,81,29.99,29.99,0,0,0,0.00
2013-11-21,77,76,74,72,71,70,94,85,80,30.13,30.04,5,2,12,0.73
2013-11-22,76,76,76,68,68,68,76,76,76,30.08,30.07,0,0,0,0.00
2013-11-23,82,81,80,71,70,69,69,69,68,30.01,29.98,4,2,0,0.00
2013-11-24,80,76,70,69,67,66,93,75,63,30.08,30.02,11,3,16,0.31
2013-11-25,73,72,70,66,65,65,83,80,77,30.17,30.10,10,3,0,0.01
2013-11-26,81,81,80,73,73,73,79,78,77,29.89,29.86,6,2,0,0.07
2013-11-27,66,65,64,58,57,56,76,76,75,30.03,30.01,1,0,0,0.00
2013-11-28,73,70,69,56,54,52,61,57,50,30.24,30.15,1,0,12,0.00
2013-11-29,77,70,57,61,58,54,92,68,51,30.25,30.18,4,0,14,0.00
2013-11-30,76,70,60,68,62,58,95,77,60,30.20,30.10,9,1,15,0.30
2013-12-1,79,68,62,69,65,60,97,91,70,30.10,29.94,6,0,0,2.02
2013-12-2,71,66,60,67,64,59,98,92,71,29.93,29.82,0,0,0,0.01
2013-12-3,79,69,59,64,62,58,98,81,54,29.99,29.89,2,0,0,0.01
2013-12-4,82,72,64,69,65,62,98,81,58,30.08,29.98,0,0,0,0.00
2013-12-5,82,76,64,71,68,63,98,78,65,30.16,30.07,10,1,13,0.00
2013-12-6,83,76,68,70,68,65,88,76,62,30.18,30.08,12,1,12,0.00
2013-12-7,82,72,65,73,68,64,97,86,68,30.22,30.13,11,1,0,0.04
2013-12-8,84,77,74,71,68,65,84,74,61,30.20,30.12,11,2,14,0.00
2013-12-9,84,77,71,70,68,63,90,73,51,30.19,30.09,12,2,16,0.00
2013-12-10,83,76,71,72,70,68,93,81,65,30.16,30.07,6,0,0,0.00
2013-12-11,85,74,68,73,69,66,98,84,55,30.20,30.11,9,0,0,0.01
2013-12-12,78,71,68,70,65,58,97,82,65,30.22,30.13,16,1,16,0.01
2013-12-13,78,72,69,67,62,56,80,69,61,30.20,30.09,12,2,12,0.00
2013-12-14,81,76,73,72,70,67,91,80,70,30.11,29.99,16,1,16,0.05
2013-12-15,82,75,70,75,71,66,96,87,74,30.06,29.92,7,0,0,0.01
2013-12-16,74,67,60,66,60,57,91,80,66,30.15,30.02,10,0,0,0.00
2013-12-17,78,66,57,63,58,55,95,78,53,30.18,30.09,8,0,0,0.00
2013-12-18,74,65,58,58,56,54,95,76,51,30.23,30.13,13,0,13,0.01
2013-12-19,77,68,55,64,58,53,96,73,54,30.24,30.15,13,1,13,0.00
2013-12-20,81,76,71,68,66,61,77,72,63,30.19,30.10,13,2,13,0.00
2013-12-21,80,76,76,72,69,68,84,80,76,30.14,30.08,12,2,12,0.00
2013-12-22,82,79,76,71,70,70,82,76,67,30.15,30.11,12,2,12,0.00
2013-12-23,80,75,70,71,70,68,92,85,74,30.16,30.10,5,0,0,0.00
2013-12-24,86,71,66,73,66,60,98,85,60,30.17,30.08,15,1,20,0.24
2013-12-25,77,72,70,66,64,62,88,77,67,30.17,30.09,15,1,15,0.03
2013-12-26,78,74,72,69,68,65,84,80,73,30.16,30.06,11,1,0,0.00
2013-12-27,81,76,72,70,68,67,90,79,68,30.19,30.08,11,1,14,0.02
2013-12-28,79,76,74,71,69,67,93,80,74,30.17,30.02,14,2,19,0.09
2013-12-29,81,77,73,74,72,71,95,86,75,30.02,29.92,12,1,19,0.01
2013-12-30,78,72,68,72,69,64,97,90,74,30.14,29.97,5,0,0,0.07
2013-12-31,78,72,67,66,63,61,87,75,61,30.22,30.10,14,1,18,0.00
2014-1-1,81,76,72,73,69,63,89,80,71,30.19,30.03,14,1,16,0.00
2014-1-2,86,76,68,72,68,65,95,78,52,30.04,29.85,13,0,14,0.00